Wind_Speed
32 33 34 35 35 35 36 37 38 38 37 37 37 38 38 38 38 39 39 39 39 39 39 39 40 41 41 42 43 43 44 44 44 44 44 45 45 46 46 46 47 47 47 47
33 33 34 35 35 36 36 36 37 37 37 36 37 38 39 39 39 38 38 38 39 39 39 39 40 41 41 42 42 43 43 43 44 44 44 44 45 45 45 45 46 46 47 46
34 33 34 34 32 34 34 34 35 37 36 36 36 37 38 39 39 39 38 37 37 38 39 39 40 40 41 41 41 42 42 42 43 43 43 44 44 45 44 45 45 45 45 46
33 32 33 32 31 32 33 33 34 35 36 36 36 36 37 38 38 38 38 37 37 37 38 38 39 40 40 41 41 41 41 41 42 42 42 43 44 44 44 44 44 44 44 44
31 33 34 32 31 31 32 33 34 34 34 34 35 35 36 36 37 37 37 37 37 37 37 38 38 39 39 40 40 40 41 41 41 41 42 42 43 43 43 43 43 43 43 42
31 32 33 32 32 31 31 32 32 33 33 34 34 34 34 34 35 35 35 36 37 37 38 37 38 38 38 39 39 40 40 41 41 41 42 42 42 41 41 41 41 41 41 40
31 32 32 32 31 31 32 31 31 31 31 32 33 33 33 33 34 34 34 35 36 36 36 36 37 37 37 37 38 39 40 40 40 40 40 41 40 40 40 40 39 39 39 38
31 32 32 31 31 31 32 32 31 32 31 31 31 32 32 33 33 33 33 35 36 36 36 36 36 36 37 37 38 38 38 38 38 38 39 39 39 39 39 39 38 38 37 37
31 31 31 30 30 30 31 32 32 32 32 31 31 32 32 33 33 34 34 35 35 36 36 36 36 37 37 37 38 38 37 37 37 37 37 38 38 37 37 37 37 36 36 36
30 30 30 30 30 31 31 31 30 30 31 31 32 32 33 33 33 34 35 35 36 36 37 37 37 37 37 37 37 37 37 36 36 36 35 35 35 35 35 35 35 36 36 36
31 31 31 31 32 31 31 31 31 30 31 32 32 32 32 33 33 33 34 35 36 36 37 37 37 36 36 36 36 35 35 35 35 34 34 34 33 33 33 34 34 35 34 34
32 32 33 32 33 33 33 32 32 33 32 32 33 33 34 33 33 33 33 34 34 35 35 35 35 35 35 35 34 34 34 34 34 33 33 33 33 32 32 33 33 33 33 33
33 33 33 33 33 34 34 34 33 33 33 33 33 34 33 33 33 33 33 33 33 32 32 32 33 33 33 34 34 34 33 33 33 33 33 33 32 32 32 32 32 32 32 32
32 32 32 32 32 33 33 33 33 33 33 33 33 33 33 33 32 33 33 33 32 31 31 30 30 31 32 32 32 32 32 32 31 31 32 31 31 31 31 31 30 31 31 32
30 30 30 30 30 31 31 32 32 33 33 34 34 33 32 32 31 31 31 31 31 30 30 29 30 30 30 30 30 30 30 30 30 30 30 30 30 29 30 30 29 30 30 31
30 30 30 30 29 29 29 30 30 31 32 32 32 32 32 32 31 31 31 30 30 29 29 29 29 29 29 29 28 28 28 28 28 28 28 28 29 29 29 28 29 29 29 29
29 29 29 29 28 28 28 29 29 30 30 30 30 30 30 30 30 30 30 29 29 28 28 28 28 28 28 27 27 27 27 27 27 27 26 26 27 27 27 27 27 28 28 29
28 28 27 27 27 27 28 28 28 28 28 28 28 28 28 28 28 28 28 28 28 27 27 27 27 27 26 26 26 26 26 26 26 25 26 26 27 27 27 27 27 28 28 29
26 26 26 27 27 27 27 27 28 27 27 27 27 26 26 26 26 26 26 26 26 26 26 26 26 26 26 26 25 25 25 25 26 26 27 27 27 27 28 28 28 28 29 29
25 26 26 26 26 27 27 27 27 27 27 26 26 26 26 26 26 25 25 25 26 26 26 25 25 24 24 25 25 25 26 26 26 27 27 28 28 28 28 28 28 28 29 29
26 26 26 26 26 26 27 27 27 26 26 26 25 25 25 24 24 24 24 24 24 24 24 24 24 24 24 25 25 25 26 26 27 27 27 27 28 28 29 29 29 29 29 29
26 26 27 27 27 27 27 27 27 26 26 25 25 24 24 24 24 24 24 23 23 23 24 24 24 25 25 25 25 25 26 26 26 27 27 27 28 28 28 29 29 28 28 28
27 27 27 27 27 27 27 27 27 26 26 25 25 24 24 23 23 23 23 23 23 24 24 24 25 25 25 25 25 25 26 26 26 26 26 27 27 27 28 28 28 28 27 27
27 28 28 27 27 27 27 27 26 26 26 25 25 24 24 24 24 24 24 24 24 24 24 25 25 25 25 25 26 26 26 26 26 26 26 26 26 27 27 27 27 27 27 28
28 28 28 28 28 27 27 26 26 26 26 26 25 25 25 25 25 25 26 25 25 25 25 25 25 25 25 25 26 26 26 26 26 26 26 26 26 26 27 27 27 27 27 27
28 28 28 28 28 27 27 27 27 26 26 26 26 26 26 26 27 27 27 27 27 26 26 26 26 26 26 26 26 26 26 26 26 25 25 25 26 26 26 26 26 26 26 27
28 28 28 28 28 28 28 28 27 27 27 27 27 27 27 26 26 27 27 27 26 26 26 25 25 26 26 26 26 26 26 26 26 26 26 26 26 27 26 26 26 26 26 26
Wind_Direction
286 285 285 284 282 280 279 279 277 277 277 275 275 275 275 274 274 274 272 272 273 273 272 270 269 269 268 268 267 267 267 267 267 268 268 268 269 269 269 270 271 272 272 272
287 286 286 284 284 282 281 279 278 277 276 277 275 274 274 274 276 275 274 273 272 272 272 272 271 270 269 269 268 268 268 268 268 269 269 269 269 269 270 270 271 272 272 273
290 289 286 285 287 285 282 280 279 278 278 278 277 276 275 276 277 277 276 274 273 273 273 272 271 271 270 269 268 268 267 268 268 269 269 269 269 269 270 271 271 272 273 272
292 291 289 289 288 288 284 281 281 281 280 280 279 278 278 278 278 277 276 275 273 273 272 272 272 271 270 269 268 267 267 267 267 268 269 269 269 269 270 271 272 272 273 273
293 291 290 289 290 290 287 284 282 282 281 281 280 280 279 279 278 278 276 275 275 273 273 272 272 271 271 270 268 267 267 267 268 269 270 270 270 269 270 271 271 272 273 274
293 292 293 294 291 291 289 286 284 284 283 282 281 280 280 279 279 278 276 274 274 274 273 272 272 271 271 270 269 268 268 268 269 270 270 271 271 270 271 272 272 273 274 274
295 293 294 294 292 290 288 288 287 285 284 282 281 282 281 280 280 280 278 276 275 275 273 272 271 271 271 271 270 271 271 271 271 271 271 272 272 272 272 273 273 274 274 274
297 295 295 295 293 291 290 289 287 286 284 282 281 282 282 280 280 280 279 278 276 274 273 272 271 271 272 272 273 273 273 272 272 272 272 272 273 273 273 272 273 273 273 274
297 296 296 295 294 292 291 289 288 287 285 283 282 282 281 280 279 279 279 279 277 276 274 273 274 274 274 274 274 274 274 274 273 273 273 273 273 272 271 271 272 273 273 275
295 294 294 293 293 292 291 289 288 286 285 285 285 284 283 283 283 282 281 279 278 278 277 276 276 276 276 276 276 275 274 274 274 273 273 273 273 272 272 272 272 273 274 275
294 293 292 291 291 290 288 287 287 287 287 288 287 287 287 286 286 286 285 283 280 278 278 277 276 276 276 276 276 275 275 275 274 273 272 272 272 272 272 273 273 274 274 274
294 294 293 292 290 288 287 286 287 287 287 287 287 287 288 287 286 285 285 283 282 280 280 279 278 277 276 277 277 277 276 275 274 273 272 271 271 272 273 273 273 274 274 274
295 295 294 293 291 290 289 288 288 288 287 287 287 287 287 287 286 286 285 284 283 282 281 280 278 277 277 277 277 277 276 274 272 272 272 272 272 273 273 273 272 272 273 273
296 296 295 294 293 292 290 289 288 288 287 287 288 287 287 287 286 286 285 284 283 282 281 280 279 279 278 279 278 277 276 274 273 272 273 273 274 274 274 274 273 272 272 273
297 297 297 296 296 294 293 291 290 289 288 288 289 289 288 287 286 286 286 286 285 283 282 281 281 280 279 279 278 276 275 274 273 273 273 273 273 274 275 274 273 272 273 274
299 299 298 298 298 297 296 295 294 293 291 290 290 289 289 287 286 286 286 286 285 284 283 283 283 281 281 280 278 276 275 275 275 274 273 272 273 274 274 274 273 273 273 273
301 301 301 301 300 299 298 298 297 296 295 293 292 291 290 289 288 287 286 285 284 284 284 283 283 283 282 280 278 277 276 275 275 273 272 272 273 274 274 274 274 274 275 274
304 303 304 305 304 302 302 301 301 300 298 297 296 294 292 291 289 288 286 285 284 284 283 283 283 282 280 279 278 276 274 273 272 271 271 272 273 274 274 275 276 276 276 276
306 306 306 307 307 306 305 304 304 302 300 298 297 296 294 293 292 290 288 286 284 284 283 283 283 282 280 279 276 275 273 272 271 272 272 272 273 275 276 277 277 276 277 277
307 307 308 309 309 308 308 307 306 304 302 300 298 298 296 295 294 292 291 290 288 286 284 283 283 282 280 278 276 274 273 273 273 273 273 273 274 275 277 278 278 278 277 277
310 309 309 310 310 309 309 309 308 305 303 301 300 299 300 299 297 295 293 292 290 289 287 285 285 284 282 279 277 276 275 275 274 274 274 274 274 275 277 278 279 279 279 278
311 310 309 309 308 308 308 309 308 306 304 303 302 301 301 301 299 298 296 294 292 291 289 288 286 284 283 281 279 278 277 276 276 275 275 275 275 276 277 277 278 279 279 279
310 310 310 310 309 308 308 308 308 307 306 304 303 302 302 301 301 300 298 295 293 293 292 290 288 286 284 282 281 280 279 278 277 277 276 276 276 276 276 277 277 278 279 279
309 309 309 310 310 310 309 308 307 307 307 306 305 303 302 302 301 301 300 299 296 294 293 291 289 287 285 284 281 280 279 279 278 278 278 277 276 276 276 276 277 278 278 279
308 309 309 309 309 309 309 308 307 307 307 306 305 303 302 302 302 302 301 300 298 296 293 292 291 289 287 285 283 281 281 280 279 278 277 277 277 277 277 277 278 278 279 280
308 308 308 309 309 308 308 308 308 307 306 305 304 302 302 301 301 302 302 301 300 298 295 293 291 290 289 287 285 282 281 280 279 278 278 277 277 277 278 278 279 279 279 280
309 309 309 309 309 310 310 309 308 307 307 306 305 303 303 303 302 302 302 301 301 299 297 294 292 291 290 289 286 282 280 280 279 279 279 279 279 279 279 279 279 279 279 280
Height
5547 5545 5543 5542 5541 5539 5538 5537 5536 5536 5535 5535 5534 5532 5531 5530 5529 5528 5527 5526 5526 5525 5525 5525 5525 5524 5524 5524 5524 5524 5524 5524 5524 5524 5524 5523 5523 5522 5522 5521 5521 5520 5519 5518
5538 5536 5534 5532 5531 5530 5528 5527 5525 5525 5524 5525 5523 5521 5520 5518 5517 5516 5515 5515 5514 5514 5513 5513 5512 5512 5512 5512 5511 5511 5511 5511 5511 5510 5510 5510 5510 5509 5509 5508 5507 5507 5506 5505
5528 5527 5523 5522 5523 5520 5519 5518 5516 5514 5515 5514 5512 5510 5508 5507 5506 5504 5503 5503 5502 5502 5501 5501 5500 5500 5499 5499 5498 5498 5498 5498 5498 5497 5497 5497 5496 5496 5495 5495 5494 5493 5493 5492
5518 5517 5514 5516 5513 5510 5508 5507 5506 5504 5503 5501 5500 5499 5497 5495 5494 5493 5492 5491 5491 5490 5489 5489 5488 5487 5487 5486 5486 5485 5485 5485 5485 5485 5485 5484 5484 5483 5483 5482 5482 5481 5480 5478
5509 5506 5504 5505 5503 5500 5498 5497 5495 5494 5492 5491 5489 5487 5486 5484 5483 5482 5481 5480 5479 5479 5478 5477 5476 5475 5474 5474 5473 5473 5473 5472 5472 5472 5472 5471 5471 5470 5470 5470 5469 5468 5467 5466
5501 5497 5495 5496 5494 5490 5489 5487 5486 5483 5481 5480 5478 5477 5476 5474 5472 5471 5470 5469 5468 5467 5466 5466 5465 5463 5463 5462 5461 5461 5461 5460 5460 5459 5459 5459 5458 5458 5457 5457 5456 5455 5454 5453
5493 5489 5487 5487 5484 5483 5481 5479 5476 5474 5472 5470 5468 5467 5465 5463 5462 5460 5459 5458 5457 5456 5455 5454 5453 5452 5451 5450 5450 5449 5448 5448 5448 5447 5447 5446 5446 5445 5445 5444 5444 5443 5442 5441
5485 5482 5482 5478 5475 5474 5471 5469 5466 5464 5462 5460 5458 5457 5455 5453 5451 5450 5448 5447 5445 5444 5443 5442 5441 5440 5440 5439 5438 5437 5437 5436 5436 5435 5435 5434 5434 5433 5433 5432 5432 5431 5431 5430
5478 5476 5472 5469 5466 5464 5461 5459 5457 5455 5453 5451 5449 5447 5445 5443 5441 5439 5438 5436 5434 5433 5432 5431 5430 5429 5428 5427 5426 5426 5425 5425 5424 5423 5423 5422 5422 5422 5421 5421 5421 5420 5419 5419
5469 5466 5464 5461 5458 5456 5453 5451 5448 5446 5444 5441 5439 5437 5435 5433 5431 5429 5427 5425 5423 5422 5421 5420 5419 5417 5417 5416 5415 5414 5414 5413 5413 5412 5412 5411 5411 5410 5410 5410 5409 5409 5408 5407
5460 5458 5455 5453 5450 5447 5444 5442 5439 5437 5435 5432 5429 5427 5425 5423 5421 5418 5416 5414 5412 5411 5409 5408 5407 5406 5405 5404 5404 5403 5403 5402 5401 5401 5400 5400 5400 5400 5399 5399 5398 5398 5397 5396
5451 5448 5446 5443 5440 5438 5435 5433 5430 5428 5426 5423 5420 5417 5415 5413 5410 5408 5406 5404 5402 5400 5398 5397 5396 5395 5394 5393 5392 5392 5392 5391 5390 5390 5390 5389 5389 5389 5388 5388 5387 5386 5386 5385
5442 5439 5436 5433 5431 5428 5425 5423 5420 5417 5415 5413 5410 5407 5405 5403 5400 5398 5395 5393 5391 5389 5388 5386 5385 5384 5383 5382 5382 5381 5381 5380 5380 5379 5379 5379 5379 5378 5378 5377 5376 5376 5375 5375
5432 5430 5427 5424 5421 5418 5415 5412 5409 5407 5404 5402 5400 5397 5395 5392 5390 5388 5385 5383 5381 5379 5378 5376 5375 5374 5373 5372 5371 5370 5370 5369 5369 5369 5369 5368 5368 5368 5367 5367 5366 5366 5365 5365
5424 5421 5418 5415 5412 5408 5405 5402 5400 5397 5394 5392 5389 5387 5384 5382 5380 5378 5375 5373 5371 5370 5368 5367 5366 5364 5363 5362 5361 5360 5360 5359 5359 5359 5359 5358 5358 5358 5357 5357 5356 5356 5355 5355
5416 5413 5409 5406 5403 5400 5396 5393 5390 5388 5385 5382 5380 5377 5374 5372 5370 5368 5365 5363 5362 5360 5359 5357 5356 5354 5353 5352 5351 5351 5350 5350 5349 5349 5349 5349 5349 5348 5348 5347 5347 5346 5345 5345
5409 5405 5402 5398 5395 5391 5388 5385 5381 5378 5375 5373 5370 5367 5365 5362 5360 5358 5356 5354 5352 5350 5349 5348 5346 5345 5344 5343 5342 5342 5341 5341 5340 5340 5340 5340 5339 5339 5339 5338 5337 5337 5336 5335
5401 5397 5393 5390 5386 5383 5380 5376 5373 5370 5366 5364 5361 5358 5355 5353 5351 5348 5346 5344 5343 5341 5340 5338 5337 5336 5335 5334 5333 5333 5332 5332 5332 5331 5331 5331 5331 5330 5330 5329 5328 5327 5327 5326
5394 5390 5386 5383 5379 5375 5372 5369 5365 5361 5358 5355 5352 5350 5347 5344 5342 5339 5337 5335 5334 5333 5331 5329 5328 5327 5326 5325 5325 5324 5324 5323 5323 5323 5323 5322 5322 5321 5321 5320 5319 5318 5317 5316
5387 5383 5380 5376 5372 5368 5365 5361 5357 5354 5350 5347 5344 5342 5339 5336 5333 5331 5329 5327 5325 5323 5322 5321 5320 5319 5318 5317 5316 5316 5315 5315 5314 5314 5314 5313 5313 5312 5312 5311 5310 5308 5307 5307
5380 5377 5373 5369 5365 5361 5358 5354 5350 5346 5343 5340 5337 5334 5331 5328 5325 5323 5321 5319 5317 5315 5314 5312 5311 5310 5309 5308 5308 5307 5306 5306 5306 5305 5305 5304 5303 5303 5302 5301 5300 5299 5298 5297
5373 5370 5366 5362 5358 5355 5350 5346 5343 5339 5335 5332 5329 5326 5323 5320 5318 5315 5313 5311 5309 5307 5306 5304 5303 5301 5300 5300 5299 5298 5297 5297 5296 5296 5295 5294 5294 5293 5292 5291 5291 5289 5288 5287
5366 5363 5359 5355 5351 5347 5343 5339 5335 5332 5328 5325 5322 5319 5316 5313 5311 5308 5306 5303 5301 5299 5297 5296 5294 5293 5292 5291 5290 5289 5288 5288 5287 5286 5285 5285 5284 5284 5283 5282 5281 5280 5279 5278
5359 5356 5352 5348 5344 5340 5336 5332 5328 5325 5321 5318 5315 5312 5309 5306 5304 5301 5298 5296 5293 5291 5289 5287 5286 5284 5283 5282 5281 5280 5279 5278 5278 5277 5276 5275 5275 5274 5273 5273 5272 5271 5270 5269
5352 5348 5344 5340 5337 5333 5329 5325 5321 5318 5314 5311 5308 5305 5302 5299 5296 5294 5291 5288 5285 5283 5281 5279 5277 5275 5274 5273 5272 5271 5270 5269 5268 5268 5267 5266 5265 5265 5264 5263 5263 5262 5261 5260
5344 5341 5337 5333 5329 5325 5321 5317 5314 5310 5307 5304 5300 5297 5294 5291 5288 5286 5283 5280 5277 5275 5272 5270 5268 5267 5265 5264 5263 5262 5261 5260 5259 5258 5258 5257 5256 5256 5255 5254 5254 5253 5252 5251
5337 5333 5329 5325 5321 5317 5314 5310 5306 5303 5299 5296 5293 5289 5286 5283 5280 5277 5275 5272 5269 5266 5264 5262 5259 5258 5256 5255 5253 5252 5251 5251 5250 5249 5248 5248 5247 5247 5246 5245 5245 5244 5243 5242